"Sample Date","Sample Time","Sensor Name","Sample Value","Units","Flow Rate","Sample Interval","Sample Volume","Laser Status","Number Channels","Micron Size 0","Counts/Channel 0","Micron Size 1","Counts/Channel 1","Micron Size 2","Counts/Channel 2","Micron Size 3","Counts/Channel 3","Micron Size 4","Counts/Channel 4","Micron Size 5","Counts/Channel 5","Micron Size 6","Counts/Channel 6","Micron Size 7","Counts/Channel 7","Micron Size 8","Counts/Channel 8","Micron Size 9","Counts/Channel 9","Micron Size 10","Counts/Channel 10","Micron Size 11","Counts/Channel 11","Micron Size 12","Counts/Channel 12","Micron Size 13","Counts/Channel 13","Micron Size 14","Counts/Channel 14","Micron Size 15","Counts/Channel 15","Micron Size 16","Counts/Channel 16","Micron Size 17","Counts/Channel 17","Micron Size 18","Counts/Channel 18","Micron Size 19","Counts/Channel 19","Micron Size 20","Counts/Channel 20","Micron Size 21","Counts/Channel 21","Micron Size 22","Counts/Channel 22","Micron Size 23","Counts/Channel 23","Micron Size 24","Counts/Channel 24","Micron Size 25","Counts/Channel 25","Micron Size 26","Counts/Channel 26","Micron Size 27","Counts/Channel 27","Micron Size 28","Counts/Channel 28","Micron Size 29","Counts/Channel 29","Micron Size 30","Counts/Channel 30","Micron Size 31","Counts/Channel 31"
"07/03/06","06:00:02","AMMA06",87329.000,"cc",28315.283,6.00,2831.529,1,6,0.100,45074.000,0.200,33409.000,0.300,6150.000,0.500,1624.000,1.000,1072.000,5.000,0
"07/03/06","06:00:08","AMMA06",88018.000,"cc",28286.627,6.00,2828.663,1,6,0.100,45412.000,0.200,33487.000,0.300,6564.000,0.500,1574.000,1.000,980.000,5.000,1.000
"07/03/06","06:00:14","AMMA06",87647.000,"cc",28348.074,6.00,2834.808,1,6,0.100,45159.000,0.200,33493.000,0.300,6497.000,0.500,1516.000,1.000,981.000,5.000,1.000
"07/03/06","06:00:20","AMMA06",87969.000,"cc",28327.504,6.00,2832.751,1,6,0.100,45372.000,0.200,33632.000,0.300,6407.000,0.500,1627.000,1.000,931.000,5.000,0
"07/03/06","06:00:26","AMMA06",87838.000,"cc",28303.932,6.00,2830.393,1,6,0.100,44940.000,0.200,33702.000,0.300,6542.000,0.500,1626.000,1.000,1028.000,5.000,0
"07/03/06","06:00:32","AMMA06",87773.000,"cc",28322.752,6.00,2832.275,1,6,0.100,45289.000,0.200,33250.000,0.300,6683.000,0.500,1580.000,1.000,971.000,5.000,0
"07/03/06","06:00:38","AMMA06",87627.000,"cc",28306.914,6.00,2830.692,1,6,0.100,45205.000,0.200,33268.000,0.300,6474.000,0.500,1617.000,1.000,1063.000,5.000,0
"07/03/06","06:00:44","AMMA06",87782.000,"cc",28339.648,6.00,2833.965,1,6,0.100,45071.000,0.200,33458.000,0.300,6525.000,0.500,1673.000,1.000,1055.000,5.000,0
"07/03/06","06:00:50","AMMA06",86794.000,"cc",28326.160,6.00,2832.616,1,6,0.100,44275.000,0.200,33384.000,0.300,6515.000,0.500,1588.000,1.000,1032.000,5.000,0
"07/03/06","06:00:56","AMMA06",87845.000,"cc",28279.373,6.00,2827.938,1,6,0.100,44697.000,0.200,33918.000,0.300,6596.000,0.500,1590.000,1.000,1044.000,5.000,0
"07/03/06","06:01:02","AMMA06",87601.000,"cc",28318.760,6.00,2831.876,1,6,0.100,44584.000,0.200,33792.000,0.300,6562.000,0.500,1643.000,1.000,1019.000,5.000,1.000
"07/03/06","06:01:08","AMMA06",87427.000,"cc",28310.947,6.00,2831.095,1,6,0.100,44859.000,0.200,33606.000,0.300,6358.000,0.500,1570.000,1.000,1033.000,5.000,1.000
"07/03/06","06:01:14","AMMA06",87624.000,"cc",28357.572,6.00,2835.757,1,6,0.100,44910.000,0.200,33659.000,0.300,6396.000,0.500,1635.000,1.000,1023.000,5.000,1.000
"07/03/06","06:01:20","AMMA06",87458.000,"cc",28335.332,6.00,2833.533,1,6,0.100,44553.000,0.200,33665.000,0.300,6589.000,0.500,1594.000,1.000,1056.000,5.000,1.000
"07/03/06","06:01:26","AMMA06",87099.000,"cc",28285.775,6.00,2828.578,1,6,0.100,44479.000,0.200,33255.000,0.300,6678.000,0.500,1609.000,1.000,1077.000,5.000,1.000
"07/03/06","06:01:32","AMMA06",87439.000,"cc",28316.559,6.00,2831.656,1,6,0.100,44556.000,0.200,33578.000,0.300,6582.000,0.500,1673.000,1.000,1049.000,5.000,1.000
"07/03/06","06:01:38","AMMA06",87342.000,"cc",28323.035,6.00,2832.304,1,6,0.100,44625.000,0.200,33573.000,0.300,6518.000,0.500,1603.000,1.000,1023.000,5.000,0
"07/03/06","06:01:44","AMMA06",86459.000,"cc",28324.012,6.00,2832.401,1,6,0.100,43939.000,0.200,33522.000,0.300,6390.000,0.500,1592.000,1.000,1016.000,5.000,0
"07/03/06","06:01:50","AMMA06",86591.000,"cc",28325.986,6.00,2832.599,1,6,0.100,44204.000,0.200,33146.000,0.300,6496.000,0.500,1682.000,1.000,1063.000,5.000,0
"07/03/06","06:01:56","AMMA06",86895.000,"cc",28296.609,6.00,2829.661,1,6,0.100,44279.000,0.200,33499.000,0.300,6471.000,0.500,1649.000,1.000,997.000,5.000,0
"07/03/06","06:02:02","AMMA06",86604.000,"cc",28338.494,6.00,2833.850,1,6,0.100,44526.000,0.200,33073.000,0.300,6371.000,0.500,1561.000,1.000,1072.000,5.000,1.000
"07/03/06","06:02:08","AMMA06",87453.000,"cc",28291.393,6.00,2829.139,1,6,0.100,44721.000,0.200,33617.000,0.300,6464.000,0.500,1650.000,1.000,1000.000,5.000,1.000
"07/03/06","06:02:14","AMMA06",86411.000,"cc",28307.916,6.00,2830.792,1,6,0.100,44205.000,0.200,33120.000,0.300,6386.000,0.500,1630.000,1.000,1070.000,5.000,0
"07/03/06","06:02:20","AMMA06",86902.000,"cc",28351.824,6.00,2835.183,1,6,0.100,44281.000,0.200,33492.000,0.300,6494.000,0.500,1583.000,1.000,1052.000,5.000,0
"07/03/06","06:02:26","AMMA06",86577.000,"cc",28343.789,6.00,2834.379,1,6,0.100,44029.000,0.200,33517.000,0.300,6443.000,0.500,1555.000,1.000,1032.000,5.000,1.000
"07/03/06","06:02:32","AMMA06",86549.000,"cc",28303.428,6.00,2830.343,1,6,0.100,44241.000,0.200,33263.000,0.300,6406.000,0.500,1595.000,1.000,1044.000,5.000,0
"07/03/06","06:02:38","AMMA06",86589.000,"cc",28295.307,6.00,2829.531,1,6,0.100,44253.000,0.200,33484.000,0.300,6209.000,0.500,1625.000,1.000,1017.000,5.000,1.000
"07/03/06","06:02:44","AMMA06",86196.000,"cc",28352.041,6.00,2835.204,1,6,0.100,43920.000,0.200,33234.000,0.300,6469.000,0.500,1587.000,1.000,986.000,5.000,0
"07/03/06","06:02:50","AMMA06",86154.000,"cc",28315.447,6.00,2831.545,1,6,0.100,43757.000,0.200,33340.000,0.300,6426.000,0.500,1623.000,1.000,1008.000,5.000,0
"07/03/06","06:02:56","AMMA06",86114.000,"cc",28311.322,6.00,2831.132,1,6,0.100,44020.000,0.200,33141.000,0.300,6408.000,0.500,1550.000,1.000,995.000,5.000,0
"07/03/06","06:03:02","AMMA06",86068.000,"cc",28338.363,6.00,2833.836,1,6,0.100,43680.000,0.200,33322.000,0.300,6525.000,0.500,1536.000,1.000,1004.000,5.000,1.000
"07/03/06","06:03:08","AMMA06",86089.000,"cc",28314.359,6.00,2831.436,1,6,0.100,43972.000,0.200,33177.000,0.300,6404.000,0.500,1548.000,1.000,988.000,5.000,0
"07/03/06","06:03:14","AMMA06",86342.000,"cc",28296.023,6.00,2829.603,1,6,0.100,43944.000,0.200,33286.000,0.300,6453.000,0.500,1651.000,1.000,1008.000,5.000,0
"07/03/06","06:03:20","AMMA06",85786.000,"cc",28301.498,6.00,2830.150,1,6,0.100,43676.000,0.200,32938.000,0.300,6498.000,0.500,1629.000,1.000,1045.000,5.000,0
"07/03/06","06:03:26","AMMA06",85775.000,"cc",28313.287,6.00,2831.329,1,6,0.100,43646.000,0.200,33177.000,0.300,6364.000,0.500,1573.000,1.000,1014.000,5.000,1.000
"07/03/06","06:03:32","AMMA06",86203.000,"cc",28280.748,6.00,2828.075,1,6,0.100,43449.000,0.200,33712.000,0.300,6439.000,0.500,1579.000,1.000,1023.000,5.000,1.000
"07/03/06","06:03:38","AMMA06",85061.000,"cc",28326.051,6.00,2832.605,1,6,0.100,42978.000,0.200,33172.000,0.300,6308.000,0.500,1600.000,1.000,1003.000,5.000,0
"07/03/06","06:03:44","AMMA06",86025.000,"cc",28310.904,6.00,2831.091,1,6,0.100,43443.000,0.200,33378.000,0.300,6510.000,0.500,1648.000,1.000,1044.000,5.000,2.000
"07/03/06","06:03:50","AMMA06",85697.000,"cc",28281.879,6.00,2828.188,1,6,0.100,43327.000,0.200,33365.000,0.300,6261.000,0.500,1671.000,1.000,1072.000,5.000,1.000
"07/03/06","06:03:56","AMMA06",85807.000,"cc",28353.627,6.00,2835.363,1,6,0.100,43809.000,0.200,32966.000,0.300,6293.000,0.500,1674.000,1.000,1065.000,5.000,0
"07/03/06","06:04:02","AMMA06",85520.000,"cc",28323.242,6.00,2832.325,1,6,0.100,43365.000,0.200,33160.000,0.300,6294.000,0.500,1648.000,1.000,1053.000,5.000,0
"07/03/06","06:04:08","AMMA06",86068.000,"cc",28316.871,6.00,2831.687,1,6,0.100,43405.000,0.200,33691.000,0.300,6405.000,0.500,1590.000,1.000,976.000,5.000,1.000
"07/03/06","06:04:14","AMMA06",85508.000,"cc",28377.777,6.00,2837.778,1,6,0.100,43433.000,0.200,33166.000,0.300,6284.000,0.500,1605.000,1.000,1020.000,5.000,0
"07/03/06","06:04:20","AMMA06",85159.000,"cc",28296.420,6.00,2829.642,1,6,0.100,43272.000,0.200,32903.000,0.300,6424.000,0.500,1548.000,1.000,1010.000,5.000,2.000
"07/03/06","06:04:26","AMMA06",85560.000,"cc",28313.922,6.00,2831.392,1,6,0.100,43113.000,0.200,33223.000,0.300,6543.000,0.500,1634.000,1.000,1045.000,5.000,2.000
"07/03/06","06:04:32","AMMA06",85058.000,"cc",28330.387,6.00,2833.039,1,6,0.100,42679.000,0.200,33289.000,0.300,6475.000,0.500,1573.000,1.000,1040.000,5.000,2.000
"07/03/06","06:04:38","AMMA06",85200.000,"cc",28318.203,6.00,2831.821,1,6,0.100,43019.000,0.200,33202.000,0.300,6357.000,0.500,1574.000,1.000,1047.000,5.000,1.000
"07/03/06","06:04:44","AMMA06",84623.000,"cc",28302.602,6.00,2830.260,1,6,0.100,42387.000,0.200,33162.000,0.300,6458.000,0.500,1609.000,1.000,1006.000,5.000,1.000
"07/03/06","06:04:50","AMMA06",84517.000,"cc",28304.150,6.00,2830.415,1,6,0.100,42414.000,0.200,33163.000,0.300,6351.000,0.500,1569.000,1.000,1020.000,5.000,0
"07/03/06","06:04:56","AMMA06",84614.000,"cc",28319.715,6.00,2831.972,1,6,0.100,42961.000,0.200,32797.000,0.300,6268.000,0.500,1560.000,1.000,1027.000,5.000,1.000
"07/03/06","06:05:02","AMMA06",84302.000,"cc",28305.121,6.00,2830.512,1,6,0.100,42493.000,0.200,32728.000,0.300,6438.000,0.500,1589.000,1.000,1054.000,5.000,0
"07/03/06","06:05:08","AMMA06",84958.000,"cc",28359.490,6.00,2835.949,1,6,0.100,42786.000,0.200,33074.000,0.300,6434.000,0.500,1599.000,1.000,1064.000,5.000,1.000
"07/03/06","06:05:14","AMMA06",85126.000,"cc",28301.898,6.00,2830.190,1,6,0.100,42892.000,0.200,33174.000,0.300,6447.000,0.500,1576.000,1.000,1036.000,5.000,1.000
"07/03/06","06:05:20","AMMA06",85161.000,"cc",28314.332,6.00,2831.433,1,6,0.100,42961.000,0.200,33107.000,0.300,6469.000,0.500,1615.000,1.000,1008.000,5.000,1.000
"07/03/06","06:05:26","AMMA06",84495.000,"cc",28287.309,6.00,2828.731,1,6,0.100,42596.000,0.200,32874.000,0.300,6389.000,0.500,1610.000,1.000,1024.000,5.000,2.000
"07/03/06","06:05:32","AMMA06",84853.000,"cc",28346.420,6.00,2834.642,1,6,0.100,42710.000,0.200,33167.000,0.300,6356.000,0.500,1646.000,1.000,973.000,5.000,1.000
"07/03/06","06:05:38","AMMA06",84688.000,"cc",28345.781,6.00,2834.578,1,6,0.100,42714.000,0.200,32899.000,0.300,6358.000,0.500,1657.000,1.000,1059.000,5.000,1.000
"07/03/06","06:05:44","AMMA06",84682.000,"cc",28307.477,6.00,2830.748,1,6,0.100,42683.000,0.200,32926.000,0.300,6332.000,0.500,1697.000,1.000,1044.000,5.000,0
"07/03/06","06:05:50","AMMA06",84508.000,"cc",28294.625,6.00,2829.463,1,6,0.100,42430.000,0.200,32986.000,0.300,6457.000,0.500,1586.000,1.000,1049.000,5.000,0
"07/03/06","06:05:56","AMMA06",84792.000,"cc",28307.988,6.00,2830.799,1,6,0.100,42752.000,0.200,33147.000,0.300,6280.000,0.500,1609.000,1.000,1004.000,5.000,0
"07/03/06","06:06:02","AMMA06",84223.000,"cc",28282.104,6.00,2828.210,1,6,0.100,42058.000,0.200,33139.000,0.300,6361.000,0.500,1597.000,1.000,1068.000,5.000,0
"07/03/06","06:06:08","AMMA06",85187.000,"cc",28351.684,6.00,2835.169,1,6,0.100,43087.000,0.200,32942.000,0.300,6386.000,0.500,1676.000,1.000,1096.000,5.000,0
"07/03/06","06:06:14","AMMA06",84452.000,"cc",28359.961,6.00,2835.996,1,6,0.100,42442.000,0.200,33034.000,0.300,6290.000,0.500,1644.000,1.000,1041.000,5.000,1.000
"07/03/06","06:06:20","AMMA06",84066.000,"cc",28245.971,6.00,2824.597,1,6,0.100,42031.000,0.200,32902.000,0.300,6429.000,0.500,1692.000,1.000,1012.000,5.000,0
"07/03/06","06:06:26","AMMA06",84338.000,"cc",28284.527,6.00,2828.453,1,6,0.100,42642.000,0.200,32995.000,0.300,6132.000,0.500,1579.000,1.000,989.000,5.000,1.000
"07/03/06","06:06:32","AMMA06",84493.000,"cc",28314.008,6.00,2831.401,1,6,0.100,42511.000,0.200,33164.000,0.300,6138.000,0.500,1680.000,1.000,1000.000,5.000,0
"07/03/06","06:06:38","AMMA06",84393.000,"cc",28309.705,6.00,2830.971,1,6,0.100,42720.000,0.200,32834.000,0.300,6216.000,0.500,1631.000,1.000,990.000,5.000,2.000
"07/03/06","06:06:44","AMMA06",84777.000,"cc",28306.914,6.00,2830.692,1,6,0.100,42568.000,0.200,33215.000,0.300,6323.000,0.500,1670.000,1.000,1001.000,5.000,0
"07/03/06","06:06:50","AMMA06",84856.000,"cc",28375.781,6.00,2837.578,1,6,0.100,42851.000,0.200,33099.000,0.300,6243.000,0.500,1630.000,1.000,1033.000,5.000,0
"07/03/06","06:06:56","AMMA06",84446.000,"cc",28326.170,6.00,2832.617,1,6,0.100,42531.000,0.200,32896.000,0.300,6347.000,0.500,1609.000,1.000,1063.000,5.000,0
"07/03/06","06:07:02","AMMA06",84007.000,"cc",28328.104,6.00,2832.811,1,6,0.100,42268.000,0.200,32873.000,0.300,6187.000,0.500,1665.000,1.000,1013.000,5.000,1.000
"07/03/06","06:07:08","AMMA06",83925.000,"cc",28319.959,6.00,2831.996,1,6,0.100,42102.000,0.200,32765.000,0.300,6282.000,0.500,1670.000,1.000,1106.000,5.000,0
"07/03/06","06:07:14","AMMA06",84484.000,"cc",28311.402,6.00,2831.140,1,6,0.100,42541.000,0.200,32967.000,0.300,6254.000,0.500,1657.000,1.000,1064.000,5.000,1.000
"07/03/06","06:07:20","AMMA06",84773.000,"cc",28320.984,6.00,2832.099,1,6,0.100,42745.000,0.200,33095.000,0.300,6242.000,0.500,1661.000,1.000,1029.000,5.000,1.000
"07/03/06","06:07:26","AMMA06",84729.000,"cc",28305.174,6.00,2830.518,1,6,0.100,43172.000,0.200,32643.000,0.300,6294.000,0.500,1618.000,1.000,1002.000,5.000,0
"07/03/06","06:07:32","AMMA06",84520.000,"cc",28305.346,6.00,2830.535,1,6,0.100,42709.000,0.200,32917.000,0.300,6316.000,0.500,1561.000,1.000,1017.000,5.000,0
"07/03/06","06:07:38","AMMA06",84432.000,"cc",28263.795,6.00,2826.380,1,6,0.100,42657.000,0.200,32936.000,0.300,6278.000,0.500,1569.000,1.000,992.000,5.000,0
"07/03/06","06:07:44","AMMA06",84239.000,"cc",28363.426,6.00,2836.343,1,6,0.100,42090.000,0.200,32987.000,0.300,6420.000,0.500,1674.000,1.000,1068.000,5.000,0
"07/03/06","06:07:50","AMMA06",84024.000,"cc",28305.994,6.00,2830.600,1,6,0.100,42319.000,0.200,32691.000,0.300,6315.000,0.500,1650.000,1.000,1049.000,5.000,0
"07/03/06","06:07:56","AMMA06",84819.000,"cc",28339.830,6.00,2833.983,1,6,0.100,42691.000,0.200,32911.000,0.300,6478.000,0.500,1681.000,1.000,1058.000,5.000,0
"07/03/06","06:08:02","AMMA06",84434.000,"cc",28342.861,6.00,2834.286,1,6,0.100,42618.000,0.200,32960.000,0.300,6269.000,0.500,1548.000,1.000,1038.000,5.000,1.000
"07/03/06","06:08:08","AMMA06",84645.000,"cc",28298.992,6.00,2829.899,1,6,0.100,42854.000,0.200,32945.000,0.300,6210.000,0.500,1574.000,1.000,1059.000,5.000,3.000
"07/03/06","06:08:14","AMMA06",84091.000,"cc",28337.242,6.00,2833.724,1,6,0.100,42720.000,0.200,32617.000,0.300,6144.000,0.500,1560.000,1.000,1050.000,5.000,0
"07/03/06","06:08:20","AMMA06",84515.000,"cc",28274.023,6.00,2827.403,1,6,0.100,42623.000,0.200,33063.000,0.300,6230.000,0.500,1610.000,1.000,989.000,5.000,0
"07/03/06","06:08:26","AMMA06",84206.000,"cc",28305.625,6.00,2830.563,1,6,0.100,42329.000,0.200,32962.000,0.300,6234.000,0.500,1627.000,1.000,1054.000,5.000,0
"07/03/06","06:08:32","AMMA06",84336.000,"cc",28346.879,6.00,2834.688,1,6,0.100,42418.000,0.200,32932.000,0.300,6290.000,0.500,1586.000,1.000,1110.000,5.000,0
"07/03/06","06:08:38","AMMA06",84836.000,"cc",28324.315,6.00,2832.432,1,6,0.100,42945.000,0.200,32867.000,0.300,6297.000,0.500,1691.000,1.000,1036.000,5.000,0
"07/03/06","06:08:44","AMMA06",84615.000,"cc",28290.609,6.00,2829.061,1,6,0.100,42699.000,0.200,32991.000,0.300,6276.000,0.500,1601.000,1.000,1047.000,5.000,1.000
"07/03/06","06:08:50","AMMA06",85001.000,"cc",28303.240,6.00,2830.324,1,6,0.100,42805.000,0.200,33155.000,0.300,6321.000,0.500,1677.000,1.000,1043.000,5.000,0
"07/03/06","06:08:56","AMMA06",85521.000,"cc",28294.490,6.00,2829.449,1,6,0.100,43630.000,0.200,33033.000,0.300,6239.000,0.500,1580.000,1.000,1038.000,5.000,1.000
"07/03/06","06:09:02","AMMA06",85383.000,"cc",28358.074,6.00,2835.808,1,6,0.100,43057.000,0.200,33312.000,0.300,6384.000,0.500,1647.000,1.000,983.000,5.000,0
"07/03/06","06:09:08","AMMA06",84432.000,"cc",28335.193,6.00,2833.520,1,6,0.100,42705.000,0.200,32867.000,0.300,6170.000,0.500,1651.000,1.000,1038.000,5.000,1.000
"07/03/06","06:09:14","AMMA06",85210.000,"cc",28343.852,6.00,2834.385,1,6,0.100,43094.000,0.200,33133.000,0.300,6223.000,0.500,1703.000,1.000,1057.000,5.000,0
"07/03/06","06:09:20","AMMA06",85070.000,"cc",28346.285,6.00,2834.629,1,6,0.100,43113.000,0.200,32961.000,0.300,6319.000,0.500,1631.000,1.000,1046.000,5.000,0
"07/03/06","06:09:26","AMMA06",84912.000,"cc",28310.035,6.00,2831.004,1,6,0.100,42662.000,0.200,33260.000,0.300,6358.000,0.500,1578.000,1.000,1054.000,5.000,0
"07/03/06","06:09:32","AMMA06",85060.000,"cc",28295.180,6.00,2829.518,1,6,0.100,43053.000,0.200,33059.000,0.300,6224.000,0.500,1650.000,1.000,1074.000,5.000,0
"07/03/06","06:09:38","AMMA06",85197.000,"cc",28293.637,6.00,2829.364,1,6,0.100,43311.000,0.200,32996.000,0.300,6256.000,0.500,1619.000,1.000,1014.000,5.000,1.000
"07/03/06","06:09:44","AMMA06",85214.000,"cc",28306.100,6.00,2830.610,1,6,0.100,42864.000,0.200,33196.000,0.300,6541.000,0.500,1581.000,1.000,1031.000,5.000,1.000
"07/03/06","06:09:50","AMMA06",85455.000,"cc",28396.797,6.00,2839.680,1,6,0.100,42960.000,0.200,33448.000,0.300,6427.000,0.500,1598.000,1.000,1021.000,5.000,1.000
"07/03/06","06:09:56","AMMA06",84994.000,"cc",28293.914,6.00,2829.392,1,6,0.100,42538.000,0.200,33372.000,0.300,6367.000,0.500,1687.000,1.000,1029.000,5.000,1.000
"07/03/06","06:10:02","AMMA06",85641.000,"cc",28249.707,6.00,2824.971,1,6,0.100,43238.000,0.200,33212.000,0.300,6558.000,0.500,1623.000,1.000,1009.000,5.000,1.000
"07/03/06","06:10:08","AMMA06",85655.000,"cc",28346.402,6.00,2834.640,1,6,0.100,42975.000,0.200,33515.000,0.300,6510.000,0.500,1596.000,1.000,1059.000,5.000,0
"07/03/06","06:10:14","AMMA06",85039.000,"cc",28320.301,6.00,2832.030,1,6,0.100,42845.000,0.200,33016.000,0.300,6514.000,0.500,1632.000,1.000,1031.000,5.000,1.000
"07/03/06","06:10:20","AMMA06",84779.000,"cc",28324.740,6.00,2832.474,1,6,0.100,42631.000,0.200,33061.000,0.300,6398.000,0.500,1604.000,1.000,1085.000,5.000,0
"07/03/06","06:10:26","AMMA06",84936.000,"cc",28293.295,6.00,2829.330,1,6,0.100,42852.000,0.200,32922.000,0.300,6523.000,0.500,1669.000,1.000,970.000,5.000,0
"07/03/06","06:10:32","AMMA06",84840.000,"cc",28314.412,6.00,2831.441,1,6,0.100,42697.000,0.200,33176.000,0.300,6300.000,0.500,1602.000,1.000,1065.000,5.000,0
"07/03/06","06:10:38","AMMA06",84996.000,"cc",28308.061,6.00,2830.806,1,6,0.100,42878.000,0.200,33074.000,0.300,6382.000,0.500,1620.000,1.000,1042.000,5.000,0
"07/03/06","06:10:44","AMMA06",84408.000,"cc",28345.486,6.00,2834.549,1,6,0.100,42225.000,0.200,33127.000,0.300,6418.000,0.500,1563.000,1.000,1075.000,5.000,0
"07/03/06","06:10:50","AMMA06",84408.000,"cc",28306.869,6.00,2830.687,1,6,0.100,42203.000,0.200,33080.000,0.300,6527.000,0.500,1585.000,1.000,1013.000,5.000,0
"07/03/06","06:10:56","AMMA06",85253.000,"cc",28343.272,6.00,2834.327,1,6,0.100,42812.000,0.200,33271.000,0.300,6470.000,0.500,1628.000,1.000,1072.000,5.000,0
"07/03/06","06:11:02","AMMA06",84603.000,"cc",28342.334,6.00,2834.234,1,6,0.100,42510.000,0.200,33075.000,0.300,6423.000,0.500,1551.000,1.000,1043.000,5.000,1.000
"07/03/06","06:11:08","AMMA06",84812.000,"cc",28317.291,6.00,2831.729,1,6,0.100,42534.000,0.200,33139.000,0.300,6522.000,0.500,1577.000,1.000,1039.000,5.000,1.000
"07/03/06","06:11:14","AMMA06",84827.000,"cc",28305.600,6.00,2830.560,1,6,0.100,42750.000,0.200,33012.000,0.300,6396.000,0.500,1630.000,1.000,1039.000,5.000,0
"07/03/06","06:11:20","AMMA06",84485.000,"cc",28291.176,6.00,2829.118,1,6,0.100,42723.000,0.200,32819.000,0.300,6304.000,0.500,1572.000,1.000,1066.000,5.000,1.000
"07/03/06","06:11:26","AMMA06",84450.000,"cc",28316.305,6.00,2831.631,1,6,0.100,42456.000,0.200,33018.000,0.300,6233.000,0.500,1690.000,1.000,1053.000,5.000,0
"07/03/06","06:11:32","AMMA06",84803.000,"cc",28315.232,6.00,2831.523,1,6,0.100,42756.000,0.200,33080.000,0.300,6388.000,0.500,1565.000,1.000,1014.000,5.000,0
"07/03/06","06:11:38","AMMA06",84174.000,"cc",28296.068,6.00,2829.607,1,6,0.100,42322.000,0.200,32877.000,0.300,6358.000,0.500,1631.000,1.000,984.000,5.000,2.000
"07/03/06","06:11:44","AMMA06",84697.000,"cc",28282.244,6.00,2828.225,1,6,0.100,42497.000,0.200,33126.000,0.300,6356.000,0.500,1657.000,1.000,1060.000,5.000,1.000
"07/03/06","06:11:50","AMMA06",84652.000,"cc",28319.654,6.00,2831.966,1,6,0.100,42648.000,0.200,33151.000,0.300,6273.000,0.500,1582.000,1.000,998.000,5.000,0
"07/03/06","06:11:56","AMMA06",84471.000,"cc",28352.301,6.00,2835.230,1,6,0.100,42641.000,0.200,32904.000,0.300,6266.000,0.500,1641.000,1.000,1018.000,5.000,1.000
"07/03/06","06:12:02","AMMA06",84436.000,"cc",28310.807,6.00,2831.081,1,6,0.100,42404.000,0.200,32963.000,0.300,6382.000,0.500,1622.000,1.000,1064.000,5.000,1.000
"07/03/06","06:12:08","AMMA06",85132.000,"cc",28290.674,6.00,2829.068,1,6,0.100,42994.000,0.200,33133.000,0.300,6373.000,0.500,1584.000,1.000,1048.000,5.000,0
"07/03/06","06:12:14","AMMA06",85224.000,"cc",28361.373,6.00,2836.138,1,6,0.100,43324.000,0.200,32924.000,0.300,6381.000,0.500,1656.000,1.000,938.000,5.000,1.000
"07/03/06","06:12:20","AMMA06",85063.000,"cc",28330.957,6.00,2833.096,1,6,0.100,43081.000,0.200,32966.000,0.300,6325.000,0.500,1690.000,1.000,1001.000,5.000,0
"07/03/06","06:12:26","AMMA06",85107.000,"cc",28313.691,6.00,2831.369,1,6,0.100,43192.000,0.200,33062.000,0.300,6270.000,0.500,1621.000,1.000,962.000,5.000,0
"07/03/06","06:12:32","AMMA06",85414.000,"cc",28279.609,6.00,2827.961,1,6,0.100,43127.000,0.200,33109.000,0.300,6472.000,0.500,1644.000,1.000,1062.000,5.000,0
"07/03/06","06:12:38","AMMA06",84725.000,"cc",28333.754,6.00,2833.376,1,6,0.100,42950.000,0.200,32887.000,0.300,6302.000,0.500,1606.000,1.000,979.000,5.000,1.000
"07/03/06","06:12:44","AMMA06",84944.000,"cc",28288.725,6.00,2828.873,1,6,0.100,42881.000,0.200,33199.000,0.300,6233.000,0.500,1611.000,1.000,1020.000,5.000,0
"07/03/06","06:12:50","AMMA06",85312.000,"cc",28362.305,6.00,2836.231,1,6,0.100,42960.000,0.200,33267.000,0.300,6335.000,0.500,1689.000,1.000,1061.000,5.000,0
"07/03/06","06:12:56","AMMA06",85237.000,"cc",28338.023,6.00,2833.803,1,6,0.100,43216.000,0.200,32899.000,0.300,6357.000,0.500,1700.000,1.000,1065.000,5.000,0
"07/03/06","06:13:02","AMMA06",85033.000,"cc",28308.516,6.00,2830.852,1,6,0.100,42894.000,0.200,33032.000,0.300,6390.000,0.500,1620.000,1.000,1096.000,5.000,1.000
"07/03/06","06:13:08","AMMA06",84871.000,"cc",28292.027,6.00,2829.203,1,6,0.100,42889.000,0.200,33010.000,0.300,6382.000,0.500,1573.000,1.000,1013.000,5.000,4.000
"07/03/06","06:13:14","AMMA06",84892.000,"cc",28338.027,6.00,2833.803,1,6,0.100,42548.000,0.200,33379.000,0.300,6338.000,0.500,1610.000,1.000,1016.000,5.000,1.000
"07/03/06","06:13:20","AMMA06",84805.000,"cc",28350.018,6.00,2835.002,1,6,0.100,42760.000,0.200,32942.000,0.300,6450.000,0.500,1649.000,1.000,1002.000,5.000,2.000
"07/03/06","06:13:26","AMMA06",85379.000,"cc",28231.988,6.00,2823.199,1,6,0.100,43186.000,0.200,33176.000,0.300,6323.000,0.500,1639.000,1.000,1055.000,5.000,0
"07/03/06","06:13:32","AMMA06",86102.000,"cc",28332.432,6.00,2833.243,1,6,0.100,43459.000,0.200,33478.000,0.300,6458.000,0.500,1642.000,1.000,1065.000,5.000,0
"07/03/06","06:13:38","AMMA06",86084.000,"cc",28342.904,6.00,2834.291,1,6,0.100,43392.000,0.200,33423.000,0.300,6543.000,0.500,1612.000,1.000,1112.000,5.000,2.000
"07/03/06","06:13:44","AMMA06",86051.000,"cc",28316.590,6.00,2831.659,1,6,0.100,43267.000,0.200,33583.000,0.300,6499.000,0.500,1599.000,1.000,1103.000,5.000,0
"07/03/06","06:13:50","AMMA06",86045.000,"cc",28346.434,6.00,2834.644,1,6,0.100,43254.000,0.200,33571.000,0.300,6542.000,0.500,1661.000,1.000,1017.000,5.000,0
"07/03/06","06:13:56","AMMA06",85518.000,"cc",28294.947,6.00,2829.495,1,6,0.100,42815.000,0.200,33520.000,0.300,6462.000,0.500,1595.000,1.000,1125.000,5.000,1.000